Simultaneous Nadir Overpasses (SNOs) Predictions

Prediction of SNOs between AQUA and METOP-B Satellite Orbit:

Table of predicted SNOs for the next 14.0 days since TLE Epoch: 10/19/2015
Index Date (AQUA) Time (AQUA) Lat,Lon (AQUA) SZA (AQUA ) Date (METOP-B) Time (METOP-B) Lat,Lon (METOP-B) SZA (METOP-B ) Distance(km) Time Diff (sec)
1 10/20/2015 08:49:04 73.73, 42.15 83.92 10/20/2015 08:47:53 73.73, 42.26 83.92 3.42 71
2 10/20/2015 09:38:30 -73.76,-150.28 96.04 10/20/2015 09:38:34 -73.75,-150.35 96.05 2.71 4
3 10/20/2015 10:27:59 73.83, 17.22 84.05 10/20/2015 10:29:12 73.86, 17.23 84.07 3.17 73
4 10/23/2015 04:23:21 73.70, 108.65 84.89 10/23/2015 04:22:15 73.68, 108.56 84.88 3.39 66
5 10/23/2015 05:12:48 -73.78, -83.89 95.02 10/23/2015 05:12:55 -73.76, -83.93 95.04 3.02 7
6 10/23/2015 06:02:19 73.95, 83.37 85.17 10/23/2015 06:03:31 73.96, 83.88 85.17 15.68 72
7 10/25/2015 23:57:37 73.70, 175.08 85.87 10/25/2015 23:56:34 73.73, 175.08 85.90 3.39 63
8 10/26/2015 00:47:04 -73.78, -17.45 94.05 10/26/2015 00:47:15 -73.76, -17.52 94.06 3.11 11
9 10/26/2015 01:36:38 74.11, 149.45 86.31 10/26/2015 01:37:48 74.10, 150.64 86.29 36.49 70
10 10/28/2015 19:31:54 73.73,-118.55 86.85 10/28/2015 19:30:55 73.72,-118.53 86.84 0.90 59
11 10/28/2015 20:21:21 -73.80, 48.92 93.07 10/28/2015 20:21:35 -73.80, 48.99 93.07 2.10 14
12 10/28/2015 21:10:57 74.24,-144.43 87.40 10/28/2015 21:12:06 74.24,-142.60 87.39 55.33 69
13 10/31/2015 15:06:10 73.73, -52.13 87.78 10/31/2015 15:05:16 73.71, -52.15 87.76 2.79 54
14 10/31/2015 15:55:37 -73.81, 115.35 92.14 10/31/2015 15:55:56 -73.79, 115.38 92.15 1.53 19




NCC Satellite Simultaneous Nadir Overpasses (SNOs) Prediction Service
